Location: Buckland
(65.9785°N, 161.1281°W)
Time: 22:29:09
(UTC+00:00)

Transit 4A - Pass Details

Date: 28 November 2020
Orbit: 864 x 981 km, 66.8° (Epoch: 19 January)

Event Time Altitude Azimuth Distance (km) Brightness Sun altitude
Rises 04:32:56 0° 309° (NW) 3,695 11.7 -19.5°
Reaches altitude 10° 04:36:22 10° 292° (WNW) 2,736 11.2 -19.8°
Maximum altitude 04:40:24 18° 252° (WSW) 2,203 10.8 -20.2°
Drops below altitude 10° 04:44:23 10° 213° (SSW) 2,695 10.8 -20.6°
Sets 04:47:45 0° 195° (SSW) 3,618 11.3 -21.0°
